Location: Central Falls
(41.8900°N, 71.3929°W)
Time: 11:41:21
(UTC+00:00)

A-11 Canister half - Pass Details

Date: 12 December 2023
Orbit: 1526 x 1682 km, 47.3° (Epoch: 20 February)

Event Time Altitude Azimuth Distance (km) Brightness Sun altitude
Rises 02:00:12 0° 287° (WNW) 4,936 12.3 -52.0°
Reaches altitude 10° 02:03:25 10° 289° (WNW) 3,945 11.6 -52.6°
Enters shadow 02:08:03 32° 297° (WNW) 2,610 10.3 -53.4°
Maximum altitude 02:13:35 72° 14° (NNE) 1,737 - -54.4°
Drops below altitude 10° 02:23:30 10° 99° (E) 3,858 - -56.1°
Sets 02:26:36 0° 101° (ESE) 4,823 - -56.6°
